Wetterdaten: Dienstag, 02.05.2017
Datum Zeit Temp. A. Pool Temp. Feuchte A. Luftdruck Regen Wind Richtung Richtung Sonnenschein ET UV Solar Taupunkt Windchill Windben Empfang
02.05.2017 00:00 4,2 C 12,2 C 92 % 1014,4 hPa 0,0 l/m 17,7 km/h (3 Bft) W-SW 247 0 min 0,025 mm 0,0 UV-I 0 W/m 3,0 C -3,2 C 30,6 km/h (5 Bft) 96,49 %
02.05.2017 00:05 4,1 C 12,2 C 92 % 1014,4 hPa 0,2 l/m 19,3 km/h (3 Bft) W-SW 247 0 min 0,000 mm 0,0 UV-I 0 W/m 2,9 C -4,0 C 29,0 km/h (5 Bft) 91,23 %
02.05.2017 00:10 4,1 C 12,2 C 92 % 1014,3 hPa 0,0 l/m 16,1 km/h (3 Bft) SW 225 0 min 0,000 mm 0,0 UV-I 0 W/m 2,9 C -2,6 C 25,7 km/h (4 Bft) 96,49 %
02.05.2017 00:15 4,1 C 12,2 C 92 % 1014,4 hPa 0,2 l/m 20,9 km/h (4 Bft) W-SW 247 0 min 0,000 mm 0,0 UV-I 0 W/m 2,9 C -4,7 C 32,2 km/h (5 Bft) 100,00 %
02.05.2017 00:20 4,2 C 12,2 C 92 % 1014,3 hPa 0,0 l/m 17,7 km/h (3 Bft) W-SW 247 0 min 0,000 mm 0,0 UV-I 0 W/m 3,0 C -3,2 C 32,2 km/h (5 Bft) 98,25 %
02.05.2017 00:25 4,2 C 12,2 C 92 % 1014,3 hPa 0,2 l/m 17,7 km/h (3 Bft) W-SW 247 0 min 0,000 mm 0,0 UV-I 0 W/m 3,0 C -3,2 C 27,4 km/h (4 Bft) 98,25 %
02.05.2017 00:30 4,2 C 12,2 C 93 % 1014,5 hPa 0,0 l/m 16,1 km/h (3 Bft) W-SW 247 0 min 0,000 mm 0,0 UV-I 0 W/m 3,2 C -2,5 C 25,7 km/h (4 Bft) 100,00 %
02.05.2017 00:35 4,2 C 12,2 C 93 % 1014,7 hPa 0,2 l/m 14,5 km/h (3 Bft) W-SW 247 0 min 0,000 mm 0,0 UV-I 0 W/m 3,2 C -1,6 C 25,7 km/h (4 Bft) 100,00 %
02.05.2017 00:40 4,2 C 12,2 C 93 % 1014,7 hPa 0,0 l/m 16,1 km/h (3 Bft) SW 225 0 min 0,000 mm 0,0 UV-I 0 W/m 3,2 C -2,5 C 29,0 km/h (5 Bft) 100,00 %
02.05.2017 00:45 4,2 C 12,2 C 93 % 1014,7 hPa 0,0 l/m 12,9 km/h (3 Bft) SW 225 0 min 0,000 mm 0,0 UV-I 0 W/m 3,2 C -0,7 C 22,5 km/h (4 Bft) 98,25 %
02.05.2017 00:50 4,2 C 12,2 C 93 % 1014,6 hPa 0,2 l/m 11,3 km/h (2 Bft) SW 225 0 min 0,000 mm 0,0 UV-I 0 W/m 3,2 C 0,3 C 20,9 km/h (4 Bft) 98,25 %
02.05.2017 00:55 4,3 C 12,2 C 93 % 1014,6 hPa 0,0 l/m 11,3 km/h (2 Bft) W-SW 247 0 min 0,000 mm 0,0 UV-I 0 W/m 3,3 C 0,4 C 17,7 km/h (3 Bft) 98,25 %
02.05.2017 01:00 4,2 C 12,2 C 93 % 1014,6 hPa 0,2 l/m 12,9 km/h (3 Bft) W-SW 247 0 min 0,000 mm 0,0 UV-I 0 W/m 3,2 C -0,7 C 20,9 km/h (4 Bft) 99,12 %
02.05.2017 01:05 4,2 C 12,2 C 93 % 1014,6 hPa 0,0 l/m 11,3 km/h (2 Bft) W-SW 247 0 min 0,000 mm 0,0 UV-I 0 W/m 3,2 C 0,3 C 20,9 km/h (4 Bft) 94,74 %
02.05.2017 01:10 4,2 C 12,2 C 93 % 1014,7 hPa 0,2 l/m 12,9 km/h (3 Bft) W-SW 247 0 min 0,000 mm 0,0 UV-I 0 W/m 3,2 C -0,7 C 19,3 km/h (3 Bft) 93,86 %
02.05.2017 01:15 4,2 C 12,2 C 93 % 1014,6 hPa 0,2 l/m 11,3 km/h (2 Bft) SW 225 0 min 0,000 mm 0,0 UV-I 0 W/m 3,2 C 0,3 C 19,3 km/h (3 Bft) 94,74 %
02.05.2017 01:20 4,3 C 12,2 C 93 % 1014,7 hPa 0,2 l/m 8,0 km/h (2 Bft) W-SW 247 0 min 0,000 mm 0,0 UV-I 0 W/m 3,3 C 2,9 C 14,5 km/h (3 Bft) 95,61 %
02.05.2017 01:25 4,3 C 12,2 C 93 % 1014,7 hPa 0,2 l/m 11,3 km/h (2 Bft) SW 225 0 min 0,000 mm 0,0 UV-I 0 W/m 3,3 C 0,4 C 19,3 km/h (3 Bft) 93,86 %
02.05.2017 01:30 4,3 C 12,2 C 93 % 1014,7 hPa 0,0 l/m 8,0 km/h (2 Bft) W-SW 247 0 min 0,000 mm 0,0 UV-I 0 W/m 3,3 C 2,9 C 14,5 km/h (3 Bft) 97,37 %
02.05.2017 01:35 4,3 C 12,2 C 94 % 1014,7 hPa 0,0 l/m 9,7 km/h (2 Bft) W-SW 247 0 min 0,000 mm 0,0 UV-I 0 W/m 3,4 C 1,5 C 16,1 km/h (3 Bft) 99,12 %
02.05.2017 01:40 4,3 C 12,2 C 94 % 1014,7 hPa 0,0 l/m 8,0 km/h (2 Bft) W-SW 247 0 min 0,000 mm 0,0 UV-I 0 W/m 3,4 C 2,9 C 14,5 km/h (3 Bft) 98,25 %
02.05.2017 01:45 4,2 C 12,2 C 94 % 1014,7 hPa 0,0 l/m 11,3 km/h (2 Bft) W-SW 247 0 min 0,000 mm 0,0 UV-I 0 W/m 3,3 C 0,3 C 19,3 km/h (3 Bft) 97,37 %
02.05.2017 01:50 4,2 C 12,2 C 94 % 1014,8 hPa 0,2 l/m 11,3 km/h (2 Bft) W-SW 247 0 min 0,000 mm 0,0 UV-I 0 W/m 3,3 C 0,3 C 20,9 km/h (4 Bft) 97,37 %
02.05.2017 01:55 4,2 C 12,2 C 93 % 1014,8 hPa 0,0 l/m 9,7 km/h (2 Bft) W-SW 247 0 min 0,000 mm 0,0 UV-I 0 W/m 3,2 C 1,4 C 17,7 km/h (3 Bft) 97,37 %
02.05.2017 02:00 4,2 C 12,2 C 93 % 1014,7 hPa 0,2 l/m 11,3 km/h (2 Bft) W-SW 247 0 min 0,000 mm 0,0 UV-I 0 W/m 3,2 C 0,3 C 19,3 km/h (3 Bft) 98,25 %
02.05.2017 02:05 4,2 C 12,2 C 93 % 1014,7 hPa 0,0 l/m 9,7 km/h (2 Bft) W-SW 247 0 min 0,000 mm 0,0 UV-I 0 W/m 3,2 C 1,4 C 19,3 km/h (3 Bft) 97,37 %
02.05.2017 02:10 4,2 C 12,2 C 93 % 1014,7 hPa 0,2 l/m 11,3 km/h (2 Bft) W-SW 247 0 min 0,000 mm 0,0 UV-I 0 W/m 3,2 C 0,3 C 19,3 km/h (3 Bft) 96,49 %
02.05.2017 02:15 4,2 C 12,2 C 93 % 1014,7 hPa 0,0 l/m 9,7 km/h (2 Bft) W-SW 247 0 min 0,000 mm 0,0 UV-I 0 W/m 3,2 C 1,4 C 19,3 km/h (3 Bft) 100,00 %
02.05.2017 02:20 4,2 C 12,2 C 93 % 1014,5 hPa 0,2 l/m 11,3 km/h (2 Bft) W-SW 247 0 min 0,000 mm 0,0 UV-I 0 W/m 3,2 C 0,3 C 16,1 km/h (3 Bft) 100,00 %
02.05.2017 02:25 4,2 C 12,2 C 93 % 1014,5 hPa 0,0 l/m 12,9 km/h (3 Bft) W-SW 247 0 min 0,000 mm 0,0 UV-I 0 W/m 3,2 C -0,7 C 20,9 km/h (4 Bft) 98,25 %
02.05.2017 02:30 4,2 C 12,2 C 93 % 1014,3 hPa 0,0 l/m 11,3 km/h (2 Bft) W 270 0 min 0,000 mm 0,0 UV-I 0 W/m 3,2 C 0,3 C 19,3 km/h (3 Bft) 99,12 %
02.05.2017 02:35 4,1 C 12,2 C 93 % 1014,4 hPa 0,0 l/m 12,9 km/h (3 Bft) W-SW 247 0 min 0,000 mm 0,0 UV-I 0 W/m 3,1 C -0,8 C 19,3 km/h (3 Bft) 98,25 %
02.05.2017 02:40 4,1 C 12,2 C 93 % 1014,5 hPa 0,0 l/m 9,7 km/h (2 Bft) W-SW 247 0 min 0,000 mm 0,0 UV-I 0 W/m 3,1 C 1,3 C 17,7 km/h (3 Bft) 97,37 %
02.05.2017 02:45 4,1 C 12,2 C 93 % 1014,6 hPa 0,0 l/m 8,0 km/h (2 Bft) SW 225 0 min 0,000 mm 0,0 UV-I 0 W/m 3,1 C 2,7 C 16,1 km/h (3 Bft) 97,37 %
02.05.2017 02:50 4,1 C 12,2 C 93 % 1014,4 hPa 0,0 l/m 8,0 km/h (2 Bft) W-SW 247 0 min 0,000 mm 0,0 UV-I 0 W/m 3,1 C 2,7 C 12,9 km/h (3 Bft) 97,37 %
02.05.2017 02:55 4,0 C 12,2 C 93 % 1014,4 hPa 0,0 l/m 8,0 km/h (2 Bft) W-SW 247 0 min 0,000 mm 0,0 UV-I 0 W/m 3,0 C 2,6 C 12,9 km/h (3 Bft) 96,49 %
02.05.2017 03:00 4,1 C 12,2 C 93 % 1014,5 hPa 0,0 l/m 6,4 km/h (2 Bft) SW 225 0 min 0,000 mm 0,0 UV-I 0 W/m 3,1 C 4,1 C 12,9 km/h (3 Bft) 97,37 %
02.05.2017 03:05 4,1 C 12,2 C 93 % 1014,5 hPa 0,0 l/m 8,0 km/h (2 Bft) SW 225 0 min 0,000 mm 0,0 UV-I 0 W/m 3,1 C 2,7 C 14,5 km/h (3 Bft) 99,12 %
02.05.2017 03:10 4,1 C 12,2 C 93 % 1014,5 hPa 0,0 l/m 8,0 km/h (2 Bft) SW 225 0 min 0,000 mm 0,0 UV-I 0 W/m 3,1 C 2,7 C 12,9 km/h (3 Bft) 97,37 %
02.05.2017 03:15 4,1 C 12,2 C 93 % 1014,4 hPa 0,0 l/m 8,0 km/h (2 Bft) W-SW 247 0 min 0,000 mm 0,0 UV-I 0 W/m 3,1 C 2,7 C 12,9 km/h (3 Bft) 99,12 %
02.05.2017 03:20 4,1 C 12,2 C 93 % 1014,5 hPa 0,0 l/m 8,0 km/h (2 Bft) W-SW 247 0 min 0,000 mm 0,0 UV-I 0 W/m 3,1 C 2,7 C 12,9 km/h (3 Bft) 100,00 %
02.05.2017 03:25 4,1 C 12,2 C 93 % 1014,4 hPa 0,0 l/m 8,0 km/h (2 Bft) SW 225 0 min 0,000 mm 0,0 UV-I 0 W/m 3,1 C 2,7 C 12,9 km/h (3 Bft) 100,00 %
02.05.2017 03:30 4,2 C 12,2 C 93 % 1014,3 hPa 0,0 l/m 8,0 km/h (2 Bft) W-SW 247 0 min 0,000 mm 0,0 UV-I 0 W/m 3,2 C 2,8 C 12,9 km/h (3 Bft) 99,12 %
02.05.2017 03:35 4,2 C 12,2 C 94 % 1014,3 hPa 0,0 l/m 6,4 km/h (2 Bft) W-SW 247 0 min 0,000 mm 0,0 UV-I 0 W/m 3,3 C 4,2 C 11,3 km/h (2 Bft) 100,00 %
02.05.2017 03:40 4,2 C 12,2 C 94 % 1014,3 hPa 0,0 l/m 8,0 km/h (2 Bft) W 270 0 min 0,000 mm 0,0 UV-I 0 W/m 3,3 C 2,8 C 11,3 km/h (2 Bft) 99,12 %
02.05.2017 03:45 4,2 C 12,2 C 94 % 1014,2 hPa 0,0 l/m 6,4 km/h (2 Bft) W-SW 247 0 min 0,000 mm 0,0 UV-I 0 W/m 3,3 C 4,2 C 11,3 km/h (2 Bft) 94,74 %
02.05.2017 03:50 4,3 C 12,2 C 94 % 1014,2 hPa 0,0 l/m 4,8 km/h (1 Bft) W-SW 247 0 min 0,000 mm 0,0 UV-I 0 W/m 3,4 C 4,3 C 9,7 km/h (2 Bft) 94,74 %
02.05.2017 03:55 4,3 C 12,2 C 94 % 1014,1 hPa 0,0 l/m 4,8 km/h (1 Bft) W-SW 247 0 min 0,000 mm 0,0 UV-I 0 W/m 3,4 C 4,3 C 8,0 km/h (2 Bft) 95,61 %
02.05.2017 04:00 4,4 C 12,2 C 93 % 1014,1 hPa 0,0 l/m 4,8 km/h (1 Bft) W-SW 247 0 min 0,000 mm 0,0 UV-I 0 W/m 3,4 C 4,4 C 8,0 km/h (2 Bft) 93,86 %
02.05.2017 04:05 4,4 C 12,2 C 93 % 1014,1 hPa 0,0 l/m 4,8 km/h (1 Bft) W-SW 247 0 min 0,000 mm 0,0 UV-I 0 W/m 3,4 C 4,4 C 11,3 km/h (2 Bft) 81,58 %
02.05.2017 04:10 4,4 C 12,2 C 93 % 1014,1 hPa 0,0 l/m 4,8 km/h (1 Bft) SW 225 0 min 0,000 mm 0,0 UV-I 0 W/m 3,4 C 4,4 C 8,0 km/h (2 Bft) 95,61 %
02.05.2017 04:15 4,5 C 12,2 C 93 % 1014,2 hPa 0,0 l/m 3,2 km/h (1 Bft) SW 225 0 min 0,000 mm 0,0 UV-I 0 W/m 3,5 C 4,5 C 6,4 km/h (2 Bft) 97,37 %
02.05.2017 04:20 4,6 C 12,2 C 93 % 1014,2 hPa 0,0 l/m 1,6 km/h (1 Bft) SW 225 0 min 0,000 mm 0,0 UV-I 0 W/m 3,6 C 4,6 C 4,8 km/h (1 Bft) 100,00 %
02.05.2017 04:25 4,5 C 12,2 C 93 % 1014,2 hPa 0,0 l/m 1,6 km/h (1 Bft) SW 225 0 min 0,000 mm 0,0 UV-I 0 W/m 3,5 C 4,5 C 4,8 km/h (1 Bft) 98,25 %
02.05.2017 04:30 4,6 C 12,2 C 93 % 1014,2 hPa 0,0 l/m 1,6 km/h (1 Bft) SW 225 0 min 0,000 mm 0,0 UV-I 0 W/m 3,6 C 4,6 C 3,2 km/h (1 Bft) 97,37 %
02.05.2017 04:35 4,6 C 12,2 C 93 % 1014,2 hPa 0,0 l/m 1,6 km/h (1 Bft) SW 225 0 min 0,000 mm 0,0 UV-I 0 W/m 3,6 C 4,6 C 4,8 km/h (1 Bft) 100,00 %
02.05.2017 04:40 4,6 C 12,2 C 93 % 1014,2 hPa 0,0 l/m 3,2 km/h (1 Bft) SW 225 0 min 0,000 mm 0,0 UV-I 0 W/m 3,6 C 4,6 C 4,8 km/h (1 Bft) 100,00 %
02.05.2017 04:45 4,6 C 12,2 C 93 % 1014,2 hPa 0,0 l/m 1,6 km/h (1 Bft) SW 225 0 min 0,000 mm 0,0 UV-I 0 W/m 3,6 C 4,6 C 4,8 km/h (1 Bft) 99,12 %
02.05.2017 04:50 4,6 C 12,2 C 93 % 1014,3 hPa 0,0 l/m 0,0 km/h (0 Bft) SW 225 0 min 0,000 mm 0,0 UV-I 0 W/m 3,6 C 4,6 C 3,2 km/h (1 Bft) 100,00 %
02.05.2017 04:55 4,6 C 12,2 C 93 % 1014,3 hPa 0,0 l/m 0,0 km/h (0 Bft) SW 225 0 min 0,000 mm 0,0 UV-I 0 W/m 3,6 C 4,6 C 1,6 km/h (1 Bft) 99,12 %
02.05.2017 05:00 4,6 C 12,2 C 94 % 1014,4 hPa 0,0 l/m 1,6 km/h (1 Bft) SW 225 0 min 0,000 mm 0,0 UV-I 0 W/m 3,7 C 4,6 C 4,8 km/h (1 Bft) 100,00 %
02.05.2017 05:05 4,5 C 12,2 C 93 % 1014,3 hPa 0,0 l/m 3,2 km/h (1 Bft) SW 225 0 min 0,000 mm 0,0 UV-I 0 W/m 3,5 C 4,5 C 6,4 km/h (2 Bft) 98,25 %
02.05.2017 05:10 4,4 C 11,7 C 93 % 1014,4 hPa 0,0 l/m 4,8 km/h (1 Bft) O-NO 67 0 min 0,000 mm 0,0 UV-I 0 W/m 3,4 C 4,4 C 8,0 km/h (2 Bft) 94,74 %
02.05.2017 05:15 4,5 C 11,7 C 94 % 1014,3 hPa 0,0 l/m 1,6 km/h (1 Bft) O-NO 67 0 min 0,000 mm 0,0 UV-I 0 W/m 3,6 C 4,5 C 4,8 km/h (1 Bft) 97,37 %
02.05.2017 05:20 4,6 C 11,7 C 94 % 1014,4 hPa 0,0 l/m 1,6 km/h (1 Bft) O-NO 67 0 min 0,000 mm 0,0 UV-I 0 W/m 3,7 C 4,6 C 4,8 km/h (1 Bft) 97,37 %
02.05.2017 05:25 4,6 C 11,7 C 94 % 1014,4 hPa 0,0 l/m 1,6 km/h (1 Bft) O 90 0 min 0,000 mm 0,0 UV-I 0 W/m 3,7 C 4,6 C 4,8 km/h (1 Bft) 97,37 %
02.05.2017 05:30 4,7 C 11,7 C 94 % 1014,4 hPa 0,0 l/m 0,0 km/h (0 Bft) O 90 0 min 0,000 mm 0,0 UV-I 0 W/m 3,8 C 4,7 C 3,2 km/h (1 Bft) 96,49 %
02.05.2017 05:35 4,6 C 11,7 C 95 % 1014,4 hPa 0,0 l/m 0,0 km/h (0 Bft) O 90 0 min 0,000 mm 0,0 UV-I 0 W/m 3,9 C 4,6 C 3,2 km/h (1 Bft) 96,49 %
02.05.2017 05:40 4,6 C 11,7 C 95 % 1014,4 hPa 0,0 l/m 0,0 km/h (0 Bft) N 0 0 min 0,000 mm 0,0 UV-I 3 W/m 3,9 C 4,6 C 0,0 km/h (0 Bft) 99,12 %
02.05.2017 05:45 4,4 C 11,7 C 94 % 1014,4 hPa 0,0 l/m 0,0 km/h (0 Bft) N 0 0 min 0,000 mm 0,0 UV-I 5 W/m 3,5 C 4,4 C 0,0 km/h (0 Bft) 96,49 %
02.05.2017 05:50 4,3 C 11,7 C 95 % 1014,5 hPa 0,0 l/m 0,0 km/h (0 Bft) N 0 0 min 0,000 mm 0,0 UV-I 7 W/m 3,6 C 4,3 C 0,0 km/h (0 Bft) 95,61 %
02.05.2017 05:55 4,3 C 11,7 C 95 % 1014,5 hPa 0,0 l/m 0,0 km/h (0 Bft) O 90 0 min 0,000 mm 0,0 UV-I 8 W/m 3,6 C 4,3 C 1,6 km/h (1 Bft) 97,37 %
02.05.2017 06:00 4,4 C 11,7 C 95 % 1014,6 hPa 0,0 l/m 0,0 km/h (0 Bft) N 0 0 min 0,000 mm 0,0 UV-I 10 W/m 3,7 C 4,4 C 0,0 km/h (0 Bft) 98,25 %
02.05.2017 06:05 4,6 C 11,7 C 95 % 1014,6 hPa 0,0 l/m 0,0 km/h (0 Bft) O 90 0 min 0,000 mm 0,0 UV-I 13 W/m 3,9 C 4,6 C 1,6 km/h (1 Bft) 96,49 %
02.05.2017 06:10 4,6 C 11,7 C 95 % 1014,7 hPa 0,0 l/m 0,0 km/h (0 Bft) O 90 0 min 0,000 mm 0,0 UV-I 31 W/m 3,9 C 4,6 C 1,6 km/h (1 Bft) 93,86 %
02.05.2017 06:15 4,7 C 11,7 C 96 % 1014,7 hPa 0,0 l/m 0,0 km/h (0 Bft) O 90 0 min 0,000 mm 0,0 UV-I 37 W/m 4,1 C 4,7 C 3,2 km/h (1 Bft) 95,61 %
02.05.2017 06:20 4,8 C 11,7 C 96 % 1014,8 hPa 0,0 l/m 1,6 km/h (1 Bft) O 90 0 min 0,000 mm 0,0 UV-I 43 W/m 4,2 C 4,8 C 4,8 km/h (1 Bft) 97,37 %
02.05.2017 06:25 4,8 C 11,7 C 96 % 1014,8 hPa 0,0 l/m 1,6 km/h (1 Bft) O 90 0 min 0,000 mm 0,0 UV-I 39 W/m 4,2 C 4,8 C 3,2 km/h (1 Bft) 93,86 %
02.05.2017 06:30 5,0 C 11,7 C 96 % 1014,9 hPa 0,0 l/m 3,2 km/h (1 Bft) S-SO 157 0 min 0,000 mm 0,0 UV-I 46 W/m 4,4 C 5,0 C 6,4 km/h (2 Bft) 94,74 %
02.05.2017 06:35 5,1 C 11,7 C 95 % 1014,9 hPa 0,0 l/m 3,2 km/h (1 Bft) S-SW 202 0 min 0,000 mm 0,0 UV-I 48 W/m 4,4 C 5,1 C 6,4 km/h (2 Bft) 97,37 %
02.05.2017 06:40 5,2 C 11,7 C 95 % 1015,0 hPa 0,0 l/m 3,2 km/h (1 Bft) SW 225 0 min 0,000 mm 0,0 UV-I 58 W/m 4,5 C 5,2 C 6,4 km/h (2 Bft) 95,61 %
02.05.2017 06:45 5,2 C 11,7 C 95 % 1015,0 hPa 0,0 l/m 4,8 km/h (1 Bft) SW 225 0 min 0,000 mm 0,0 UV-I 65 W/m 4,5 C 5,2 C 8,0 km/h (2 Bft) 97,37 %
02.05.2017 06:50 5,3 C 11,7 C 95 % 1015,2 hPa 0,0 l/m 6,4 km/h (2 Bft) SW 225 0 min 0,000 mm 0,0 UV-I 71 W/m 4,6 C 5,3 C 8,0 km/h (2 Bft) 97,37 %
02.05.2017 06:55 5,5 C 11,7 C 95 % 1015,1 hPa 0,0 l/m 4,8 km/h (1 Bft) SW 225 0 min 0,000 mm 0,0 UV-I 74 W/m 4,8 C 5,5 C 8,0 km/h (2 Bft) 99,12 %
02.05.2017 07:00 5,6 C 11,7 C 94 % 1015,1 hPa 0,0 l/m 4,8 km/h (1 Bft) SW 225 0 min 0,025 mm 0,0 UV-I 90 W/m 4,7 C 5,6 C 8,0 km/h (2 Bft) 97,37 %
02.05.2017 07:05 5,7 C 11,7 C 94 % 1015,1 hPa 0,0 l/m 6,4 km/h (2 Bft) SW 225 0 min 0,000 mm 0,0 UV-I 109 W/m 4,8 C 5,7 C 11,3 km/h (2 Bft) 97,37 %
02.05.2017 07:10 5,8 C 11,7 C 93 % 1015,1 hPa 0,0 l/m 6,4 km/h (2 Bft) S-SW 202 5 min 0,000 mm 0,0 UV-I 133 W/m 4,8 C 5,8 C 9,7 km/h (2 Bft) 98,25 %
02.05.2017 07:15 5,8 C 11,7 C 93 % 1015,1 hPa 0,0 l/m 6,4 km/h (2 Bft) S-SW 202 0 min 0,000 mm 0,0 UV-I 102 W/m 4,8 C 5,8 C 11,3 km/h (2 Bft) 95,61 %
02.05.2017 07:20 5,8 C 11,7 C 92 % 1015,1 hPa 0,0 l/m 4,8 km/h (1 Bft) S-SW 202 0 min 0,000 mm 0,0 UV-I 86 W/m 4,6 C 5,8 C 9,7 km/h (2 Bft) 97,37 %
02.05.2017 07:25 5,9 C 11,7 C 92 % 1015,1 hPa 0,0 l/m 4,8 km/h (1 Bft) S-SW 202 0 min 0,000 mm 0,0 UV-I 72 W/m 4,7 C 5,9 C 11,3 km/h (2 Bft) 95,61 %
02.05.2017 07:30 5,9 C 11,7 C 92 % 1015,1 hPa 0,0 l/m 4,8 km/h (1 Bft) S-SW 202 0 min 0,000 mm 0,0 UV-I 83 W/m 4,7 C 5,9 C 8,0 km/h (2 Bft) 98,25 %
02.05.2017 07:35 6,0 C 11,7 C 92 % 1015,1 hPa 0,0 l/m 4,8 km/h (1 Bft) S-SW 202 0 min 0,000 mm 0,0 UV-I 109 W/m 4,8 C 6,0 C 8,0 km/h (2 Bft) 96,49 %
02.05.2017 07:40 6,1 C 11,7 C 92 % 1015,1 hPa 0,0 l/m 3,2 km/h (1 Bft) S-SW 202 0 min 0,000 mm 0,0 UV-I 105 W/m 4,9 C 6,1 C 8,0 km/h (2 Bft) 95,61 %
02.05.2017 07:45 6,2 C 11,7 C 92 % 1015,2 hPa 0,0 l/m 4,8 km/h (1 Bft) S-SW 202 0 min 0,000 mm 0,0 UV-I 105 W/m 5,0 C 6,2 C 8,0 km/h (2 Bft) 95,61 %
02.05.2017 07:50 6,2 C 11,7 C 92 % 1015,2 hPa 0,0 l/m 3,2 km/h (1 Bft) S-SW 202 0 min 0,000 mm 0,0 UV-I 93 W/m 5,0 C 6,2 C 8,0 km/h (2 Bft) 92,11 %
02.05.2017 07:55 6,3 C 11,7 C 92 % 1015,2 hPa 0,0 l/m 1,6 km/h (1 Bft) S 180 0 min 0,000 mm 0,0 UV-I 88 W/m 5,1 C 6,3 C 4,8 km/h (1 Bft) 93,86 %
02.05.2017 08:00 6,3 C 11,7 C 91 % 1015,2 hPa 0,0 l/m 3,2 km/h (1 Bft) S-SW 202 0 min 0,051 mm 0,0 UV-I 79 W/m 4,9 C 6,3 C 8,0 km/h (2 Bft) 93,86 %
02.05.2017 08:05 6,3 C 11,7 C 91 % 1015,3 hPa 0,0 l/m 1,6 km/h (1 Bft) S-SO 157 0 min 0,000 mm 0,0 UV-I 83 W/m 4,9 C 6,3 C 4,8 km/h (1 Bft) 98,25 %
02.05.2017 08:10 6,3 C 11,7 C 91 % 1015,3 hPa 0,0 l/m 1,6 km/h (1 Bft) S-SO 157 0 min 0,000 mm 0,0 UV-I 83 W/m 4,9 C 6,3 C 3,2 km/h (1 Bft) 97,37 %
02.05.2017 08:15 6,4 C 11,7 C 90 % 1015,3 hPa 0,0 l/m 1,6 km/h (1 Bft) S-SO 157 0 min 0,000 mm 0,0 UV-I 103 W/m 4,9 C 6,4 C 6,4 km/h (2 Bft) 95,61 %
02.05.2017 08:20 6,5 C 11,7 C 91 % 1015,4 hPa 0,0 l/m 1,6 km/h (1 Bft) S 180 0 min 0,000 mm 0,0 UV-I 111 W/m 5,1 C 6,5 C 6,4 km/h (2 Bft) 99,12 %
02.05.2017 08:25 6,7 C 11,7 C 92 % 1015,4 hPa 0,0 l/m 1,6 km/h (1 Bft) S 180 0 min 0,000 mm 0,0 UV-I 126 W/m 5,5 C 6,7 C 6,4 km/h (2 Bft) 98,25 %
02.05.2017 08:30 6,8 C 11,7 C 92 % 1015,4 hPa 0,0 l/m 1,6 km/h (1 Bft) S 180 0 min 0,000 mm 0,3 UV-I 161 W/m 5,6 C 6,8 C 6,4 km/h (2 Bft) 96,49 %
02.05.2017 08:35 6,8 C 11,7 C 92 % 1015,5 hPa 0,0 l/m 1,6 km/h (1 Bft) S 180 0 min 0,000 mm 0,5 UV-I 181 W/m 5,6 C 6,8 C 8,0 km/h (2 Bft) 99,12 %
02.05.2017 08:40 7,0 C 11,7 C 92 % 1015,6 hPa 0,0 l/m 1,6 km/h (1 Bft) S 180 0 min 0,000 mm 0,1 UV-I 133 W/m 5,8 C 7,0 C 4,8 km/h (1 Bft) 95,61 %
02.05.2017 08:45 7,0 C 11,7 C 91 % 1015,6 hPa 0,0 l/m 4,8 km/h (1 Bft) SO 135 0 min 0,000 mm 0,0 UV-I 111 W/m 5,6 C 7,0 C 8,0 km/h (2 Bft) 95,61 %
02.05.2017 08:50 7,0 C 11,7 C 92 % 1015,6 hPa 0,0 l/m 3,2 km/h (1 Bft) O-SO 112 0 min 0,000 mm 0,0 UV-I 137 W/m 5,8 C 7,0 C 6,4 km/h (2 Bft) 93,86 %
02.05.2017 08:55 7,0 C 11,7 C 91 % 1015,7 hPa 0,0 l/m 1,6 km/h (1 Bft) O-SO 112 0 min 0,000 mm 0,5 UV-I 161 W/m 5,6 C 7,0 C 6,4 km/h (2 Bft) 97,37 %
02.05.2017 09:00 7,1 C 11,7 C 91 % 1015,7 hPa 0,0 l/m 3,2 km/h (1 Bft) O-SO 112 0 min 0,051 mm 0,7 UV-I 200 W/m 5,7 C 7,1 C 4,8 km/h (1 Bft) 99,12 %
02.05.2017 09:05 7,2 C 12,2 C 91 % 1015,6 hPa 0,0 l/m 3,2 km/h (1 Bft) O-SO 112 0 min 0,000 mm 0,9 UV-I 258 W/m 5,8 C 7,2 C 6,4 km/h (2 Bft) 93,86 %
02.05.2017 09:10 7,4 C 12,2 C 91 % 1015,6 hPa 0,0 l/m 3,2 km/h (1 Bft) O-SO 112 0 min 0,000 mm 1,0 UV-I 268 W/m 6,0 C 7,4 C 6,4 km/h (2 Bft) 95,61 %
02.05.2017 09:15 7,6 C 12,2 C 90 % 1015,6 hPa 0,0 l/m 3,2 km/h (1 Bft) O-SO 112 0 min 0,000 mm 1,1 UV-I 275 W/m 6,1 C 7,6 C 6,4 km/h (2 Bft) 95,61 %
02.05.2017 09:20 7,7 C 12,2 C 89 % 1015,6 hPa 0,0 l/m 1,6 km/h (1 Bft) O-SO 112 0 min 0,000 mm 1,1 UV-I 267 W/m 6,0 C 7,7 C 4,8 km/h (1 Bft) 95,61 %
02.05.2017 09:25 8,2 C 12,2 C 89 % 1015,7 hPa 0,0 l/m 1,6 km/h (1 Bft) O-SO 112 5 min 0,000 mm 1,6 UV-I 605 W/m 6,5 C 8,2 C 4,8 km/h (1 Bft) 97,37 %
02.05.2017 09:30 8,4 C 12,2 C 86 % 1015,7 hPa 0,0 l/m 3,2 km/h (1 Bft) O-SO 112 5 min 0,000 mm 1,4 UV-I 479 W/m 6,2 C 8,4 C 9,7 km/h (2 Bft) 96,49 %
02.05.2017 09:35 8,5 C 12,2 C 83 % 1015,8 hPa 0,0 l/m 1,6 km/h (1 Bft) SW 225 5 min 0,000 mm 1,5 UV-I 441 W/m 5,8 C 8,5 C 6,4 km/h (2 Bft) 98,25 %
02.05.2017 09:40 8,7 C 12,2 C 84 % 1015,8 hPa 0,0 l/m 3,2 km/h (1 Bft) W-SW 247 5 min 0,000 mm 1,6 UV-I 376 W/m 6,2 C 8,7 C 6,4 km/h (2 Bft) 95,61 %
02.05.2017 09:45 9,0 C 12,2 C 85 % 1015,8 hPa 0,0 l/m 1,6 km/h (1 Bft) W 270 5 min 0,000 mm 1,7 UV-I 681 W/m 6,6 C 9,0 C 3,2 km/h (1 Bft) 93,86 %
02.05.2017 09:50 9,3 C 12,2 C 80 % 1015,8 hPa 0,0 l/m 3,2 km/h (1 Bft) SO 135 5 min 0,000 mm 2,1 UV-I 780 W/m 6,0 C 9,3 C 8,0 km/h (2 Bft) 96,49 %
02.05.2017 09:55 9,1 C 12,2 C 80 % 1015,9 hPa 0,0 l/m 1,6 km/h (1 Bft) S-SO 157 5 min 0,000 mm 1,4 UV-I 401 W/m 5,8 C 9,1 C 6,4 km/h (2 Bft) 96,49 %
02.05.2017 10:00 9,2 C 12,2 C 81 % 1015,8 hPa 0,0 l/m 3,2 km/h (1 Bft) SW 225 5 min 0,203 mm 1,6 UV-I 415 W/m 6,1 C 9,2 C 9,7 km/h (2 Bft) 95,61 %
02.05.2017 10:05 9,5 C 12,2 C 80 % 1015,8 hPa 0,0 l/m 4,8 km/h (1 Bft) S-SO 157 5 min 0,000 mm 1,8 UV-I 367 W/m 6,2 C 9,5 C 16,1 km/h (3 Bft) 92,11 %
02.05.2017 10:10 9,7 C 12,2 C 79 % 1015,9 hPa 0,0 l/m 4,8 km/h (1 Bft) S-SW 202 0 min 0,000 mm 1,5 UV-I 328 W/m 6,2 C 9,7 C 12,9 km/h (3 Bft) 92,98 %
02.05.2017 10:15 9,8 C 12,2 C 77 % 1015,9 hPa 0,0 l/m 3,2 km/h (1 Bft) S 180 5 min 0,000 mm 1,7 UV-I 442 W/m 6,0 C 9,8 C 9,7 km/h (2 Bft) 94,74 %
02.05.2017 10:20 10,2 C 12,2 C 77 % 1016,0 hPa 0,0 l/m 9,7 km/h (2 Bft) W-SW 247 5 min 0,000 mm 1,8 UV-I 416 W/m 6,4 C 8,0 C 17,7 km/h (3 Bft) 95,61 %
02.05.2017 10:25 10,2 C 12,2 C 74 % 1016,0 hPa 0,0 l/m 11,3 km/h (2 Bft) S-SW 202 5 min 0,000 mm 1,6 UV-I 404 W/m 5,8 C 7,1 C 17,7 km/h (3 Bft) 97,37 %
02.05.2017 10:30 10,2 C 12,2 C 76 % 1016,0 hPa 0,0 l/m 6,4 km/h (2 Bft) SW 225 0 min 0,000 mm 1,5 UV-I 348 W/m 6,2 C 10,2 C 16,1 km/h (3 Bft) 93,86 %
02.05.2017 10:35 10,3 C 12,2 C 73 % 1016,0 hPa 0,0 l/m 6,4 km/h (2 Bft) W-SW 247 0 min 0,000 mm 1,3 UV-I 288 W/m 5,7 C 10,3 C 14,5 km/h (3 Bft) 95,61 %
02.05.2017 10:40 10,2 C 12,2 C 75 % 1016,0 hPa 0,0 l/m 4,8 km/h (1 Bft) S-SW 202 0 min 0,000 mm 0,9 UV-I 241 W/m 6,0 C 10,2 C 11,3 km/h (2 Bft) 96,49 %
02.05.2017 10:45 10,1 C 12,2 C 75 % 1016,0 hPa 0,0 l/m 4,8 km/h (1 Bft) W-SW 247 0 min 0,000 mm 0,9 UV-I 231 W/m 5,9 C 10,1 C 9,7 km/h (2 Bft) 97,37 %
02.05.2017 10:50 10,1 C 12,2 C 77 % 1016,0 hPa 0,0 l/m 4,8 km/h (1 Bft) W-NW 292 0 min 0,000 mm 0,7 UV-I 177 W/m 6,3 C 10,1 C 12,9 km/h (3 Bft) 98,25 %
02.05.2017 10:55 9,9 C 12,2 C 73 % 1016,0 hPa 0,0 l/m 6,4 km/h (2 Bft) W-SW 247 0 min 0,000 mm 1,0 UV-I 232 W/m 5,3 C 9,9 C 12,9 km/h (3 Bft) 97,37 %
02.05.2017 11:00 10,4 C 12,2 C 74 % 1016,0 hPa 0,0 l/m 9,7 km/h (2 Bft) SW 225 0 min 0,178 mm 1,7 UV-I 397 W/m 6,0 C 8,2 C 17,7 km/h (3 Bft) 100,00 %
02.05.2017 11:05 10,5 C 12,2 C 73 % 1016,0 hPa 0,0 l/m 9,7 km/h (2 Bft) SW 225 0 min 0,000 mm 1,6 UV-I 307 W/m 5,9 C 8,3 C 16,1 km/h (3 Bft) 99,12 %
02.05.2017 11:10 10,7 C 12,2 C 73 % 1016,1 hPa 0,0 l/m 6,4 km/h (2 Bft) W 270 0 min 0,000 mm 2,4 UV-I 293 W/m 6,1 C 10,7 C 14,5 km/h (3 Bft) 97,37 %
02.05.2017 11:15 11,2 C 12,2 C 72 % 1016,2 hPa 0,0 l/m 4,8 km/h (1 Bft) W-SW 247 0 min 0,000 mm 2,8 UV-I 332 W/m 6,3 C 11,2 C 14,5 km/h (3 Bft) 96,49 %
02.05.2017 11:20 11,4 C 12,2 C 71 % 1016,1 hPa 0,0 l/m 6,4 km/h (2 Bft) W-SW 247 5 min 0,000 mm 3,1 UV-I 1054 W/m 6,3 C 11,4 C 12,9 km/h (3 Bft) 98,25 %
02.05.2017 11:25 11,3 C 12,2 C 68 % 1016,1 hPa 0,0 l/m 8,0 km/h (2 Bft) W 270 0 min 0,000 mm 2,4 UV-I 399 W/m 5,6 C 10,2 C 17,7 km/h (3 Bft) 97,37 %
02.05.2017 11:30 11,2 C 12,2 C 67 % 1015,9 hPa 0,0 l/m 11,3 km/h (2 Bft) W 270 0 min 0,000 mm 1,6 UV-I 344 W/m 5,3 C 8,2 C 17,7 km/h (3 Bft) 96,49 %
02.05.2017 11:35 11,1 C 12,2 C 68 % 1016,1 hPa 0,0 l/m 9,7 km/h (2 Bft) W-SW 247 0 min 0,000 mm 1,4 UV-I 306 W/m 5,4 C 9,0 C 16,1 km/h (3 Bft) 98,25 %
02.05.2017 11:40 11,2 C 12,2 C 69 % 1016,0 hPa 0,0 l/m 6,4 km/h (2 Bft) SW 225 0 min 0,000 mm 1,8 UV-I 336 W/m 5,7 C 11,2 C 12,9 km/h (3 Bft) 93,86 %
02.05.2017 11:45 11,1 C 12,2 C 68 % 1015,9 hPa 0,0 l/m 9,7 km/h (2 Bft) W-SW 247 0 min 0,000 mm 1,9 UV-I 268 W/m 5,4 C 9,0 C 17,7 km/h (3 Bft) 94,74 %
02.05.2017 11:50 11,4 C 12,2 C 67 % 1015,9 hPa 0,0 l/m 9,7 km/h (2 Bft) W 270 5 min 0,000 mm 3,5 UV-I 879 W/m 5,5 C 9,3 C 17,7 km/h (3 Bft) 86,84 %
02.05.2017 11:55 11,8 C 12,2 C 66 % 1015,8 hPa 0,0 l/m 6,4 km/h (2 Bft) W-SW 247 5 min 0,000 mm 3,7 UV-I 868 W/m 5,7 C 11,8 C 14,5 km/h (3 Bft) 84,21 %
02.05.2017 12:00 12,2 C 12,2 C 64 % 1015,9 hPa 0,0 l/m 9,7 km/h (2 Bft) W-SW 247 5 min 0,305 mm 3,7 UV-I 868 W/m 5,6 C 10,2 C 16,1 km/h (3 Bft) 91,23 %
02.05.2017 12:05 12,3 C 12,2 C 62 % 1015,8 hPa 0,0 l/m 6,4 km/h (2 Bft) W 270 5 min 0,000 mm 3,8 UV-I 873 W/m 5,2 C 12,3 C 16,1 km/h (3 Bft) 92,11 %
02.05.2017 12:10 12,3 C 12,2 C 62 % 1015,8 hPa 0,0 l/m 8,0 km/h (2 Bft) W-SW 247 5 min 0,000 mm 3,9 UV-I 883 W/m 5,2 C 11,3 C 19,3 km/h (3 Bft) 91,23 %
02.05.2017 12:15 12,7 C 12,2 C 61 % 1015,9 hPa 0,0 l/m 8,0 km/h (2 Bft) W-SW 247 5 min 0,000 mm 3,9 UV-I 893 W/m 5,4 C 11,7 C 14,5 km/h (3 Bft) 96,49 %
02.05.2017 12:20 12,9 C 12,2 C 59 % 1016,1 hPa 0,0 l/m 9,7 km/h (2 Bft) W-SW 247 5 min 0,000 mm 4,0 UV-I 917 W/m 5,1 C 11,0 C 17,7 km/h (3 Bft) 100,00 %
02.05.2017 12:25 12,9 C 12,8 C 60 % 1016,0 hPa 0,0 l/m 8,0 km/h (2 Bft) SW 225 5 min 0,000 mm 3,6 UV-I 900 W/m 5,3 C 11,9 C 16,1 km/h (3 Bft) 94,74 %
02.05.2017 12:30 13,5 C 12,8 C 57 % 1016,0 hPa 0,0 l/m 12,9 km/h (3 Bft) W-SW 247 5 min 0,000 mm 4,2 UV-I 1041 W/m 5,2 C 10,2 C 20,9 km/h (4 Bft) 94,74 %
02.05.2017 12:35 13,8 C 12,8 C 60 % 1015,9 hPa 0,0 l/m 9,7 km/h (2 Bft) S-SW 202 5 min 0,000 mm 4,2 UV-I 1010 W/m 6,2 C 11,9 C 22,5 km/h (4 Bft) 97,37 %
02.05.2017 12:40 13,7 C 12,8 C 57 % 1015,9 hPa 0,0 l/m 9,7 km/h (2 Bft) S-SW 202 5 min 0,000 mm 4,3 UV-I 1054 W/m 5,3 C 11,8 C 17,7 km/h (3 Bft) 99,12 %
02.05.2017 12:45 13,8 C 12,8 C 59 % 1015,9 hPa 0,0 l/m 8,0 km/h (2 Bft) W-SW 247 5 min 0,000 mm 4,3 UV-I 1051 W/m 5,9 C 12,8 C 16,1 km/h (3 Bft) 95,61 %
02.05.2017 12:50 13,6 C 12,8 C 57 % 1015,9 hPa 0,0 l/m 9,7 km/h (2 Bft) SW 225 5 min 0,000 mm 2,7 UV-I 639 W/m 5,2 C 11,7 C 20,9 km/h (4 Bft) 98,25 %
02.05.2017 12:55 13,1 C 12,8 C 56 % 1015,8 hPa 0,0 l/m 4,8 km/h (1 Bft) S-SW 202 5 min 0,000 mm 3,7 UV-I 621 W/m 4,5 C 13,1 C 9,7 km/h (2 Bft) 99,12 %
02.05.2017 13:00 13,7 C 12,8 C 60 % 1015,8 hPa 0,0 l/m 9,7 km/h (2 Bft) S 180 5 min 0,483 mm 4,2 UV-I 1069 W/m 6,1 C 11,8 C 19,3 km/h (3 Bft) 100,00 %
02.05.2017 13:05 14,2 C 12,8 C 53 % 1015,7 hPa 0,0 l/m 4,8 km/h (1 Bft) W-SW 247 5 min 0,000 mm 4,3 UV-I 1071 W/m 4,8 C 14,2 C 12,9 km/h (3 Bft) 97,37 %
02.05.2017 13:10 14,3 C 12,8 C 54 % 1015,7 hPa 0,0 l/m 6,4 km/h (2 Bft) W 270 5 min 0,000 mm 4,0 UV-I 1072 W/m 5,1 C 14,3 C 16,1 km/h (3 Bft) 96,49 %
02.05.2017 13:15 14,1 C 12,8 C 52 % 1015,7 hPa 0,0 l/m 8,0 km/h (2 Bft) W-NW 292 5 min 0,000 mm 4,3 UV-I 958 W/m 4,4 C 13,2 C 16,1 km/h (3 Bft) 97,37 %
02.05.2017 13:20 13,9 C 12,8 C 54 % 1015,7 hPa 0,0 l/m 4,8 km/h (1 Bft) W-NW 292 5 min 0,000 mm 4,3 UV-I 924 W/m 4,7 C 13,9 C 11,3 km/h (2 Bft) 97,37 %
02.05.2017 13:25 14,0 C 12,8 C 56 % 1015,6 hPa 0,0 l/m 3,2 km/h (1 Bft) N-NW 337 5 min 0,000 mm 4,2 UV-I 912 W/m 5,4 C 14,0 C 9,7 km/h (2 Bft) 96,49 %
02.05.2017 13:30 14,3 C 12,8 C 53 % 1015,6 hPa 0,0 l/m 3,2 km/h (1 Bft) N-NW 337 5 min 0,000 mm 4,2 UV-I 907 W/m 4,9 C 14,3 C 11,3 km/h (2 Bft) 95,61 %
02.05.2017 13:35 14,2 C 12,8 C 49 % 1015,6 hPa 0,0 l/m 8,0 km/h (2 Bft) W 270 5 min 0,000 mm 4,2 UV-I 907 W/m 3,6 C 13,3 C 14,5 km/h (3 Bft) 91,23 %
02.05.2017 13:40 14,4 C 12,8 C 62 % 1015,6 hPa 0,0 l/m 6,4 km/h (2 Bft) W-NW 292 5 min 0,000 mm 4,1 UV-I 901 W/m 7,2 C 14,4 C 14,5 km/h (3 Bft) 95,61 %
02.05.2017 13:45 14,2 C 12,8 C 66 % 1015,5 hPa 0,0 l/m 9,7 km/h (2 Bft) N-NO 22 5 min 0,000 mm 4,1 UV-I 885 W/m 7,9 C 12,4 C 16,1 km/h (3 Bft) 96,49 %
02.05.2017 13:50 14,3 C 13,3 C 67 % 1015,5 hPa 0,0 l/m 4,8 km/h (1 Bft) N 360 5 min 0,000 mm 4,0 UV-I 886 W/m 8,3 C 14,3 C 16,1 km/h (3 Bft) 95,61 %
02.05.2017 13:55 14,4 C 13,3 C 64 % 1015,5 hPa 0,0 l/m 11,3 km/h (2 Bft) NO 45 5 min 0,000 mm 4,0 UV-I 868 W/m 7,7 C 11,9 C 17,7 km/h (3 Bft) 92,11 %
02.05.2017 14:00 14,1 C 13,3 C 59 % 1015,5 hPa 0,0 l/m 8,0 km/h (2 Bft) O-NO 67 5 min 0,483 mm 3,3 UV-I 738 W/m 6,2 C 13,2 C 14,5 km/h (3 Bft) 92,11 %
02.05.2017 14:05 14,1 C 13,3 C 67 % 1015,6 hPa 0,0 l/m 8,0 km/h (2 Bft) O-NO 67 5 min 0,000 mm 3,6 UV-I 915 W/m 8,1 C 13,2 C 14,5 km/h (3 Bft) 95,61 %
02.05.2017 14:10 14,3 C 13,3 C 61 % 1015,6 hPa 0,0 l/m 6,4 km/h (2 Bft) N-NO 22 5 min 0,000 mm 3,8 UV-I 933 W/m 6,9 C 14,3 C 11,3 km/h (2 Bft) 96,49 %
02.05.2017 14:15 14,2 C 13,3 C 62 % 1015,5 hPa 0,0 l/m 3,2 km/h (1 Bft) N-NO 22 5 min 0,000 mm 3,6 UV-I 847 W/m 7,0 C 14,2 C 9,7 km/h (2 Bft) 97,37 %
02.05.2017 14:20 14,6 C 13,3 C 61 % 1015,5 hPa 0,0 l/m 3,2 km/h (1 Bft) N-NO 22 5 min 0,000 mm 3,8 UV-I 846 W/m 7,2 C 14,6 C 12,9 km/h (3 Bft) 93,86 %
02.05.2017 14:25 14,4 C 13,3 C 58 % 1015,5 hPa 0,0 l/m 1,6 km/h (1 Bft) NW 315 5 min 0,000 mm 3,8 UV-I 845 W/m 6,2 C 14,4 C 4,8 km/h (1 Bft) 99,12 %
02.05.2017 14:30 14,9 C 13,3 C 60 % 1015,6 hPa 0,0 l/m 4,8 km/h (1 Bft) N-NO 22 5 min 0,000 mm 3,8 UV-I 874 W/m 7,2 C 14,9 C 9,7 km/h (2 Bft) 93,86 %
02.05.2017 14:35 15,0 C 13,3 C 56 % 1015,6 hPa 0,0 l/m 3,2 km/h (1 Bft) N-NO 22 5 min 0,000 mm 3,8 UV-I 862 W/m 6,3 C 15,0 C 9,7 km/h (2 Bft) 96,49 %
02.05.2017 14:40 15,3 C 13,3 C 58 % 1015,6 hPa 0,0 l/m 6,4 km/h (2 Bft) NO 45 5 min 0,000 mm 3,7 UV-I 919 W/m 7,1 C 15,3 C 11,3 km/h (2 Bft) 97,37 %
02.05.2017 14:45 15,1 C 13,3 C 58 % 1015,6 hPa 0,0 l/m 6,4 km/h (2 Bft) NO 45 5 min 0,000 mm 2,9 UV-I 635 W/m 6,9 C 15,1 C 9,7 km/h (2 Bft) 92,98 %
02.05.2017 14:50 14,4 C 13,3 C 58 % 1015,6 hPa 0,0 l/m 8,0 km/h (2 Bft) NO 45 0 min 0,000 mm 2,1 UV-I 243 W/m 6,2 C 13,5 C 14,5 km/h (3 Bft) 92,98 %
02.05.2017 14:55 14,7 C 13,3 C 63 % 1015,5 hPa 0,0 l/m 8,0 km/h (2 Bft) N-NO 22 5 min 0,000 mm 3,3 UV-I 858 W/m 7,7 C 13,8 C 14,5 km/h (3 Bft) 91,23 %
02.05.2017 15:00 14,6 C 13,3 C 61 % 1015,5 hPa 0,0 l/m 3,2 km/h (1 Bft) NO 45 5 min 0,432 mm 2,8 UV-I 911 W/m 7,2 C 14,6 C 11,3 km/h (2 Bft) 97,37 %
02.05.2017 15:05 14,8 C 13,3 C 55 % 1015,5 hPa 0,0 l/m 3,2 km/h (1 Bft) O-NO 67 5 min 0,000 mm 3,3 UV-I 868 W/m 5,8 C 14,8 C 8,0 km/h (2 Bft) 95,61 %
02.05.2017 15:10 15,2 C 13,3 C 59 % 1015,5 hPa 0,0 l/m 4,8 km/h (1 Bft) NO 45 5 min 0,000 mm 3,3 UV-I 851 W/m 7,2 C 15,2 C 11,3 km/h (2 Bft) 93,86 %
02.05.2017 15:15 15,4 C 13,9 C 56 % 1015,4 hPa 0,0 l/m 4,8 km/h (1 Bft) NO 45 5 min 0,000 mm 3,2 UV-I 824 W/m 6,7 C 15,4 C 9,7 km/h (2 Bft) 99,12 %
02.05.2017 15:20 15,3 C 13,9 C 55 % 1015,5 hPa 0,0 l/m 6,4 km/h (2 Bft) NO 45 5 min 0,000 mm 3,0 UV-I 802 W/m 6,3 C 15,3 C 14,5 km/h (3 Bft) 92,98 %
02.05.2017 15:25 15,4 C 13,9 C 58 % 1015,4 hPa 0,0 l/m 6,4 km/h (2 Bft) NO 45 5 min 0,000 mm 3,0 UV-I 757 W/m 7,2 C 15,4 C 14,5 km/h (3 Bft) 95,61 %
02.05.2017 15:30 15,4 C 13,9 C 52 % 1015,5 hPa 0,0 l/m 9,7 km/h (2 Bft) O-NO 67 5 min 0,000 mm 2,9 UV-I 729 W/m 5,6 C 13,7 C 14,5 km/h (3 Bft) 96,49 %
02.05.2017 15:35 15,3 C 13,9 C 54 % 1015,4 hPa 0,0 l/m 11,3 km/h (2 Bft) O-NO 67 5 min 0,000 mm 2,8 UV-I 715 W/m 6,0 C 12,9 C 17,7 km/h (3 Bft) 96,49 %
02.05.2017 15:40 15,6 C 13,9 C 54 % 1015,4 hPa 0,0 l/m 6,4 km/h (2 Bft) O-NO 67 5 min 0,000 mm 2,7 UV-I 707 W/m 6,3 C 15,6 C 12,9 km/h (3 Bft) 95,61 %
02.05.2017 15:45 15,7 C 13,9 C 54 % 1015,5 hPa 0,0 l/m 8,0 km/h (2 Bft) O-NO 67 5 min 0,000 mm 2,6 UV-I 698 W/m 6,4 C 14,8 C 14,5 km/h (3 Bft) 93,86 %
02.05.2017 15:50 15,7 C 13,9 C 55 % 1015,4 hPa 0,0 l/m 8,0 km/h (2 Bft) O-NO 67 5 min 0,000 mm 2,5 UV-I 691 W/m 6,7 C 14,8 C 14,5 km/h (3 Bft) 95,61 %
02.05.2017 15:55 15,6 C 13,9 C 52 % 1015,4 hPa 0,0 l/m 8,0 km/h (2 Bft) O-NO 67 5 min 0,000 mm 2,4 UV-I 672 W/m 5,8 C 14,7 C 14,5 km/h (3 Bft) 94,74 %
02.05.2017 16:00 15,7 C 13,9 C 54 % 1015,4 hPa 0,0 l/m 4,8 km/h (1 Bft) NO 45 5 min 0,432 mm 2,3 UV-I 652 W/m 6,4 C 15,7 C 11,3 km/h (2 Bft) 98,25 %
02.05.2017 16:05 15,7 C 13,9 C 49 % 1015,4 hPa 0,0 l/m 8,0 km/h (2 Bft) O-NO 67 5 min 0,000 mm 2,3 UV-I 639 W/m 5,0 C 14,8 C 12,9 km/h (3 Bft) 100,00 %
02.05.2017 16:10 15,5 C 13,9 C 54 % 1015,4 hPa 0,0 l/m 4,8 km/h (1 Bft) O-NO 67 5 min 0,000 mm 2,2 UV-I 630 W/m 6,2 C 15,5 C 16,1 km/h (3 Bft) 98,25 %
02.05.2017 16:15 15,5 C 13,9 C 53 % 1015,3 hPa 0,0 l/m 6,4 km/h (2 Bft) O-NO 67 5 min 0,000 mm 2,1 UV-I 619 W/m 6,0 C 15,5 C 17,7 km/h (3 Bft) 100,00 %
02.05.2017 16:20 16,1 C 13,9 C 54 % 1015,3 hPa 0,0 l/m 9,7 km/h (2 Bft) O-NO 67 5 min 0,000 mm 2,0 UV-I 604 W/m 6,8 C 14,5 C 17,7 km/h (3 Bft) 99,12 %
02.05.2017 16:25 16,1 C 13,9 C 55 % 1015,3 hPa 0,0 l/m 6,4 km/h (2 Bft) N-NW 337 5 min 0,000 mm 1,9 UV-I 589 W/m 7,1 C 16,1 C 16,1 km/h (3 Bft) 99,12 %
02.05.2017 16:30 15,8 C 13,9 C 56 % 1015,3 hPa 0,0 l/m 3,2 km/h (1 Bft) N 360 5 min 0,000 mm 1,9 UV-I 574 W/m 7,0 C 15,8 C 8,0 km/h (2 Bft) 100,00 %
02.05.2017 16:35 15,7 C 13,9 C 54 % 1015,3 hPa 0,0 l/m 4,8 km/h (1 Bft) N-NO 22 5 min 0,000 mm 1,8 UV-I 563 W/m 6,4 C 15,7 C 14,5 km/h (3 Bft) 95,61 %
02.05.2017 16:40 16,0 C 13,9 C 51 % 1015,3 hPa 0,0 l/m 4,8 km/h (1 Bft) NO 45 5 min 0,000 mm 1,7 UV-I 551 W/m 5,9 C 16,0 C 12,9 km/h (3 Bft) 96,49 %
02.05.2017 16:45 15,8 C 13,9 C 51 % 1015,2 hPa 0,0 l/m 6,4 km/h (2 Bft) O-NO 67 5 min 0,000 mm 1,7 UV-I 539 W/m 5,7 C 15,8 C 12,9 km/h (3 Bft) 94,74 %
02.05.2017 16:50 15,9 C 13,9 C 51 % 1015,3 hPa 0,0 l/m 8,0 km/h (2 Bft) O-NO 67 5 min 0,000 mm 1,6 UV-I 526 W/m 5,8 C 15,0 C 14,5 km/h (3 Bft) 93,86 %
02.05.2017 16:55 15,8 C 13,9 C 51 % 1015,2 hPa 0,0 l/m 11,3 km/h (2 Bft) NO 45 5 min 0,000 mm 1,5 UV-I 511 W/m 5,7 C 13,5 C 19,3 km/h (3 Bft) 94,74 %
02.05.2017 17:00 15,8 C 13,9 C 50 % 1015,2 hPa 0,0 l/m 6,4 km/h (2 Bft) O-NO 67 5 min 0,356 mm 1,4 UV-I 497 W/m 5,4 C 15,8 C 11,3 km/h (2 Bft) 94,74 %
02.05.2017 17:05 15,9 C 13,9 C 53 % 1015,1 hPa 0,0 l/m 12,9 km/h (3 Bft) O-NO 67 5 min 0,000 mm 1,3 UV-I 482 W/m 6,3 C 13,0 C 22,5 km/h (4 Bft) 97,37 %
02.05.2017 17:10 15,7 C 13,9 C 53 % 1015,2 hPa 0,0 l/m 14,5 km/h (3 Bft) O-NO 67 5 min 0,000 mm 1,3 UV-I 468 W/m 6,1 C 12,2 C 19,3 km/h (3 Bft) 97,37 %
02.05.2017 17:15 15,6 C 13,9 C 55 % 1015,2 hPa 0,0 l/m 16,1 km/h (3 Bft) O-NO 67 5 min 0,000 mm 1,2 UV-I 453 W/m 6,6 C 11,6 C 22,5 km/h (4 Bft) 100,00 %
02.05.2017 17:20 15,7 C 13,9 C 56 % 1015,1 hPa 0,0 l/m 11,3 km/h (2 Bft) O-NO 67 5 min 0,000 mm 1,1 UV-I 439 W/m 6,9 C 13,3 C 20,9 km/h (4 Bft) 100,00 %
02.05.2017 17:25 15,7 C 13,9 C 55 % 1015,1 hPa 0,0 l/m 11,3 km/h (2 Bft) O-NO 67 5 min 0,000 mm 1,1 UV-I 424 W/m 6,7 C 13,3 C 20,9 km/h (4 Bft) 97,37 %
02.05.2017 17:30 15,7 C 13,9 C 54 % 1015,2 hPa 0,0 l/m 12,9 km/h (3 Bft) NO 45 5 min 0,000 mm 1,0 UV-I 409 W/m 6,4 C 12,7 C 22,5 km/h (4 Bft) 96,49 %
02.05.2017 17:35 15,5 C 13,9 C 56 % 1015,1 hPa 0,0 l/m 11,3 km/h (2 Bft) NO 45 5 min 0,000 mm 0,9 UV-I 393 W/m 6,8 C 13,1 C 22,5 km/h (4 Bft) 98,25 %
02.05.2017 17:40 15,8 C 13,9 C 57 % 1015,2 hPa 0,0 l/m 9,7 km/h (2 Bft) NO 45 5 min 0,000 mm 0,9 UV-I 377 W/m 7,3 C 14,1 C 20,9 km/h (4 Bft) 95,61 %
02.05.2017 17:45 15,7 C 13,9 C 55 % 1015,2 hPa 0,0 l/m 9,7 km/h (2 Bft) NO 45 5 min 0,000 mm 0,8 UV-I 361 W/m 6,7 C 14,0 C 17,7 km/h (3 Bft) 96,49 %
02.05.2017 17:50 15,6 C 14,4 C 53 % 1015,1 hPa 0,0 l/m 11,3 km/h (2 Bft) O-NO 67 5 min 0,000 mm 0,8 UV-I 348 W/m 6,1 C 13,2 C 17,7 km/h (3 Bft) 98,25 %
02.05.2017 17:55 15,5 C 14,4 C 53 % 1015,1 hPa 0,0 l/m 12,9 km/h (3 Bft) O-NO 67 5 min 0,000 mm 0,7 UV-I 333 W/m 6,0 C 12,5 C 20,9 km/h (4 Bft) 92,98 %
02.05.2017 18:00 15,4 C 14,4 C 54 % 1015,1 hPa 0,0 l/m 9,7 km/h (2 Bft) NO 45 5 min 0,279 mm 0,7 UV-I 317 W/m 6,1 C 13,7 C 20,9 km/h (4 Bft) 98,25 %
02.05.2017 18:05 15,6 C 14,4 C 56 % 1015,1 hPa 0,0 l/m 8,0 km/h (2 Bft) NO 45 5 min 0,000 mm 0,6 UV-I 300 W/m 6,9 C 14,7 C 16,1 km/h (3 Bft) 92,11 %
02.05.2017 18:10 15,5 C 14,4 C 52 % 1015,1 hPa 0,0 l/m 12,9 km/h (3 Bft) O-NO 67 5 min 0,000 mm 0,6 UV-I 285 W/m 5,7 C 12,5 C 19,3 km/h (3 Bft) 96,49 %
02.05.2017 18:15 15,4 C 14,4 C 54 % 1015,1 hPa 0,0 l/m 12,9 km/h (3 Bft) NO 45 5 min 0,000 mm 0,5 UV-I 270 W/m 6,1 C 12,4 C 24,1 km/h (4 Bft) 92,98 %
02.05.2017 18:20 15,4 C 14,4 C 56 % 1015,1 hPa 0,0 l/m 9,7 km/h (2 Bft) NO 45 5 min 0,000 mm 0,4 UV-I 254 W/m 6,7 C 13,7 C 17,7 km/h (3 Bft) 88,60 %
02.05.2017 18:25 15,3 C 14,4 C 56 % 1015,1 hPa 0,0 l/m 12,9 km/h (3 Bft) NO 45 5 min 0,000 mm 0,0 UV-I 241 W/m 6,6 C 12,3 C 20,9 km/h (4 Bft) 82,46 %
02.05.2017 18:30 15,1 C 14,4 C 59 % 1015,2 hPa 0,0 l/m 9,7 km/h (2 Bft) N-NO 22 5 min 0,000 mm 0,0 UV-I 226 W/m 7,1 C 13,4 C 17,7 km/h (3 Bft) 94,74 %
02.05.2017 18:35 15,3 C 14,4 C 55 % 1015,2 hPa 0,0 l/m 9,7 km/h (2 Bft) O-NO 67 5 min 0,000 mm 0,0 UV-I 211 W/m 6,3 C 13,6 C 16,1 km/h (3 Bft) 93,86 %
02.05.2017 18:40 15,2 C 14,4 C 60 % 1015,2 hPa 0,0 l/m 9,7 km/h (2 Bft) NO 45 5 min 0,000 mm 0,0 UV-I 198 W/m 7,5 C 13,5 C 19,3 km/h (3 Bft) 92,98 %
02.05.2017 18:45 15,2 C 14,4 C 55 % 1015,2 hPa 0,0 l/m 12,9 km/h (3 Bft) O-NO 67 5 min 0,000 mm 0,0 UV-I 183 W/m 6,2 C 12,2 C 19,3 km/h (3 Bft) 93,86 %
02.05.2017 18:50 15,1 C 14,4 C 57 % 1015,1 hPa 0,0 l/m 12,9 km/h (3 Bft) O-NO 67 5 min 0,000 mm 0,0 UV-I 169 W/m 6,6 C 12,0 C 22,5 km/h (4 Bft) 95,61 %
02.05.2017 18:55 15,1 C 14,4 C 56 % 1015,1 hPa 0,0 l/m 11,3 km/h (2 Bft) O-NO 67 5 min 0,000 mm 0,0 UV-I 156 W/m 6,4 C 12,7 C 17,7 km/h (3 Bft) 92,98 %
02.05.2017 19:00 15,0 C 14,4 C 56 % 1015,1 hPa 0,0 l/m 11,3 km/h (2 Bft) O-NO 67 5 min 0,178 mm 0,0 UV-I 145 W/m 6,3 C 12,6 C 17,7 km/h (3 Bft) 97,37 %
02.05.2017 19:05 14,8 C 14,4 C 56 % 1015,2 hPa 0,0 l/m 12,9 km/h (3 Bft) NO 45 5 min 0,000 mm 0,0 UV-I 133 W/m 6,1 C 11,7 C 20,9 km/h (4 Bft) 92,11 %
02.05.2017 19:10 14,8 C 14,4 C 56 % 1015,2 hPa 0,0 l/m 11,3 km/h (2 Bft) NO 45 5 min 0,000 mm 0,0 UV-I 122 W/m 6,1 C 12,3 C 17,7 km/h (3 Bft) 96,49 %
02.05.2017 19:15 14,7 C 14,4 C 59 % 1015,2 hPa 0,0 l/m 11,3 km/h (2 Bft) NO 45 5 min 0,000 mm 0,0 UV-I 111 W/m 6,8 C 12,2 C 16,1 km/h (3 Bft) 92,98 %
02.05.2017 19:20 14,7 C 13,9 C 58 % 1015,3 hPa 0,0 l/m 9,7 km/h (2 Bft) NO 45 5 min 0,000 mm 0,0 UV-I 100 W/m 6,5 C 12,9 C 19,3 km/h (3 Bft) 95,61 %
02.05.2017 19:25 14,4 C 13,9 C 60 % 1015,3 hPa 0,0 l/m 9,7 km/h (2 Bft) NO 45 5 min 0,000 mm 0,0 UV-I 88 W/m 6,7 C 12,6 C 20,9 km/h (4 Bft) 96,49 %
02.05.2017 19:30 14,1 C 13,9 C 61 % 1015,4 hPa 0,0 l/m 9,7 km/h (2 Bft) NO 45 5 min 0,000 mm 0,0 UV-I 77 W/m 6,7 C 12,3 C 14,5 km/h (3 Bft) 95,61 %
02.05.2017 19:35 13,9 C 13,9 C 61 % 1015,4 hPa 0,0 l/m 11,3 km/h (2 Bft) NO 45 5 min 0,000 mm 0,0 UV-I 68 W/m 6,5 C 11,3 C 19,3 km/h (3 Bft) 96,49 %
02.05.2017 19:40 13,8 C 13,9 C 61 % 1015,4 hPa 0,0 l/m 8,0 km/h (2 Bft) NO 45 5 min 0,000 mm 0,0 UV-I 58 W/m 6,4 C 12,8 C 16,1 km/h (3 Bft) 92,98 %
02.05.2017 19:45 13,6 C 13,9 C 62 % 1015,4 hPa 0,0 l/m 8,0 km/h (2 Bft) NO 45 5 min 0,000 mm 0,0 UV-I 49 W/m 6,5 C 12,6 C 14,5 km/h (3 Bft) 95,61 %
02.05.2017 19:50 13,4 C 13,9 C 64 % 1015,4 hPa 0,0 l/m 6,4 km/h (2 Bft) NO 45 5 min 0,000 mm 0,0 UV-I 41 W/m 6,7 C 13,4 C 11,3 km/h (2 Bft) 94,74 %
02.05.2017 19:55 13,1 C 13,9 C 64 % 1015,5 hPa 0,0 l/m 6,4 km/h (2 Bft) NO 45 5 min 0,000 mm 0,0 UV-I 33 W/m 6,4 C 13,1 C 9,7 km/h (2 Bft) 92,98 %
02.05.2017 20:00 12,9 C 13,9 C 65 % 1015,5 hPa 0,0 l/m 6,4 km/h (2 Bft) NO 45 5 min 0,076 mm 0,0 UV-I 28 W/m 6,5 C 12,9 C 11,3 km/h (2 Bft) 91,23 %
02.05.2017 20:05 12,8 C 13,9 C 66 % 1015,6 hPa 0,0 l/m 6,4 km/h (2 Bft) NO 45 5 min 0,000 mm 0,0 UV-I 25 W/m 6,6 C 12,8 C 9,7 km/h (2 Bft) 92,98 %
02.05.2017 20:10 12,8 C 13,9 C 66 % 1015,6 hPa 0,0 l/m 4,8 km/h (1 Bft) NO 45 0 min 0,000 mm 0,0 UV-I 19 W/m 6,6 C 12,8 C 8,0 km/h (2 Bft) 96,49 %
02.05.2017 20:15 12,5 C 13,9 C 68 % 1015,6 hPa 0,0 l/m 4,8 km/h (1 Bft) NO 45 0 min 0,000 mm 0,0 UV-I 14 W/m 6,8 C 12,5 C 8,0 km/h (2 Bft) 97,37 %
02.05.2017 20:20 12,3 C 13,9 C 68 % 1015,6 hPa 0,0 l/m 4,8 km/h (1 Bft) NO 45 0 min 0,000 mm 0,0 UV-I 11 W/m 6,6 C 12,3 C 8,0 km/h (2 Bft) 98,25 %
02.05.2017 20:25 12,2 C 13,9 C 68 % 1015,5 hPa 0,0 l/m 3,2 km/h (1 Bft) NO 45 0 min 0,000 mm 0,0 UV-I 8 W/m 6,5 C 12,2 C 6,4 km/h (2 Bft) 98,25 %
02.05.2017 20:30 12,1 C 13,9 C 68 % 1015,7 hPa 0,0 l/m 3,2 km/h (1 Bft) NO 45 0 min 0,000 mm 0,0 UV-I 5 W/m 6,4 C 12,1 C 4,8 km/h (1 Bft) 100,00 %
02.05.2017 20:35 11,9 C 13,9 C 69 % 1015,8 hPa 0,0 l/m 3,2 km/h (1 Bft) NO 45 0 min 0,000 mm 0,0 UV-I 2 W/m 6,4 C 11,9 C 4,8 km/h (1 Bft) 97,37 %
02.05.2017 20:40 11,8 C 13,9 C 69 % 1015,8 hPa 0,0 l/m 4,8 km/h (1 Bft) NO 45 0 min 0,000 mm 0,0 UV-I 0 W/m 6,3 C 11,8 C 6,4 km/h (2 Bft) 95,61 %
02.05.2017 20:45 11,7 C 13,9 C 70 % 1015,8 hPa 0,0 l/m 4,8 km/h (1 Bft) NO 45 0 min 0,000 mm 0,0 UV-I 0 W/m 6,4 C 11,7 C 6,4 km/h (2 Bft) 96,49 %
02.05.2017 20:50 11,4 C 13,9 C 71 % 1015,9 hPa 0,0 l/m 1,6 km/h (1 Bft) NO 45 0 min 0,000 mm 0,0 UV-I 0 W/m 6,3 C 11,4 C 4,8 km/h (1 Bft) 99,12 %
02.05.2017 20:55 11,2 C 13,9 C 72 % 1015,8 hPa 0,0 l/m 3,2 km/h (1 Bft) NO 45 0 min 0,000 mm 0,0 UV-I 0 W/m 6,3 C 11,2 C 4,8 km/h (1 Bft) 99,12 %
02.05.2017 21:00 11,1 C 13,9 C 73 % 1015,8 hPa 0,0 l/m 3,2 km/h (1 Bft) O-NO 67 0 min 0,025 mm 0,0 UV-I 0 W/m 6,4 C 11,1 C 6,4 km/h (2 Bft) 99,12 %
02.05.2017 21:05 11,3 C 13,9 C 71 % 1015,8 hPa 0,0 l/m 4,8 km/h (1 Bft) NO 45 0 min 0,000 mm 0,0 UV-I 0 W/m 6,2 C 11,3 C 6,4 km/h (2 Bft) 96,49 %
02.05.2017 21:10 11,5 C 13,9 C 71 % 1015,8 hPa 0,0 l/m 6,4 km/h (2 Bft) NO 45 0 min 0,000 mm 0,0 UV-I 0 W/m 6,4 C 11,5 C 8,0 km/h (2 Bft) 98,25 %
02.05.2017 21:15 11,6 C 13,9 C 70 % 1015,8 hPa 0,0 l/m 6,4 km/h (2 Bft) O-NO 67 0 min 0,000 mm 0,0 UV-I 0 W/m 6,3 C 11,6 C 12,9 km/h (3 Bft) 95,61 %
02.05.2017 21:20 11,6 C 13,9 C 70 % 1015,8 hPa 0,0 l/m 6,4 km/h (2 Bft) O-NO 67 0 min 0,000 mm 0,0 UV-I 0 W/m 6,3 C 11,6 C 9,7 km/h (2 Bft) 95,61 %
02.05.2017 21:25 11,5 C 13,9 C 70 % 1015,8 hPa 0,0 l/m 6,4 km/h (2 Bft) O-NO 67 0 min 0,000 mm 0,0 UV-I 0 W/m 6,2 C 11,5 C 9,7 km/h (2 Bft) 95,61 %
02.05.2017 21:30 11,3 C 13,9 C 71 % 1015,9 hPa 0,0 l/m 4,8 km/h (1 Bft) NO 45 0 min 0,000 mm 0,0 UV-I 0 W/m 6,2 C 11,3 C 8,0 km/h (2 Bft) 94,74 %
02.05.2017 21:35 11,0 C 13,9 C 72 % 1015,9 hPa 0,0 l/m 6,4 km/h (2 Bft) NO 45 0 min 0,000 mm 0,0 UV-I 0 W/m 6,2 C 11,0 C 9,7 km/h (2 Bft) 94,74 %
02.05.2017 21:40 10,8 C 13,9 C 73 % 1015,8 hPa 0,0 l/m 6,4 km/h (2 Bft) NO 45 0 min 0,000 mm 0,0 UV-I 0 W/m 6,2 C 10,8 C 8,0 km/h (2 Bft) 94,74 %
02.05.2017 21:45 10,9 C 13,9 C 72 % 1015,8 hPa 0,0 l/m 4,8 km/h (1 Bft) NO 45 0 min 0,000 mm 0,0 UV-I 0 W/m 6,1 C 10,9 C 8,0 km/h (2 Bft) 96,49 %
02.05.2017 21:50 10,9 C 13,9 C 72 % 1015,9 hPa 0,0 l/m 4,8 km/h (1 Bft) NO 45 0 min 0,000 mm 0,0 UV-I 0 W/m 6,1 C 10,9 C 6,4 km/h (2 Bft) 92,11 %
02.05.2017 21:55 11,1 C 13,9 C 71 % 1015,8 hPa 0,0 l/m 6,4 km/h (2 Bft) O-NO 67 0 min 0,000 mm 0,0 UV-I 0 W/m 6,0 C 11,1 C 9,7 km/h (2 Bft) 96,49 %
02.05.2017 22:00 11,1 C 13,9 C 71 % 1015,8 hPa 0,0 l/m 6,4 km/h (2 Bft) O-NO 67 0 min 0,025 mm 0,0 UV-I 0 W/m 6,0 C 11,1 C 9,7 km/h (2 Bft) 93,86 %
02.05.2017 22:05 11,2 C 13,9 C 71 % 1015,8 hPa 0,0 l/m 6,4 km/h (2 Bft) O-NO 67 0 min 0,000 mm 0,0 UV-I 0 W/m 6,1 C 11,2 C 12,9 km/h (3 Bft) 96,49 %
02.05.2017 22:10 11,2 C 13,9 C 71 % 1015,8 hPa 0,0 l/m 6,4 km/h (2 Bft) NO 45 0 min 0,000 mm 0,0 UV-I 0 W/m 6,1 C 11,2 C 9,7 km/h (2 Bft) 93,86 %
02.05.2017 22:15 11,1 C 13,9 C 71 % 1015,8 hPa 0,0 l/m 6,4 km/h (2 Bft) O-NO 67 0 min 0,000 mm 0,0 UV-I 0 W/m 6,0 C 11,1 C 11,3 km/h (2 Bft) 90,35 %
02.05.2017 22:20 11,1 C 13,9 C 71 % 1015,8 hPa 0,0 l/m 8,0 km/h (2 Bft) O-NO 67 0 min 0,000 mm 0,0 UV-I 0 W/m 6,0 C 10,0 C 11,3 km/h (2 Bft) 96,49 %
02.05.2017 22:25 11,1 C 13,9 C 71 % 1015,8 hPa 0,0 l/m 8,0 km/h (2 Bft) O-NO 67 0 min 0,000 mm 0,0 UV-I 0 W/m 6,0 C 10,0 C 12,9 km/h (3 Bft) 95,61 %
02.05.2017 22:30 11,1 C 13,9 C 71 % 1015,9 hPa 0,0 l/m 8,0 km/h (2 Bft) NO 45 0 min 0,000 mm 0,0 UV-I 0 W/m 6,0 C 10,0 C 12,9 km/h (3 Bft) 98,25 %
02.05.2017 22:35 10,9 C 13,9 C 71 % 1015,9 hPa 0,0 l/m 8,0 km/h (2 Bft) O-NO 67 0 min 0,000 mm 0,0 UV-I 0 W/m 5,9 C 9,8 C 12,9 km/h (3 Bft) 97,37 %
02.05.2017 22:40 10,7 C 13,9 C 72 % 1015,9 hPa 0,0 l/m 6,4 km/h (2 Bft) O-NO 67 0 min 0,000 mm 0,0 UV-I 0 W/m 5,9 C 10,7 C 9,7 km/h (2 Bft) 94,74 %
02.05.2017 22:45 10,6 C 13,9 C 72 % 1015,9 hPa 0,0 l/m 6,4 km/h (2 Bft) O-NO 67 0 min 0,000 mm 0,0 UV-I 0 W/m 5,8 C 10,6 C 9,7 km/h (2 Bft) 96,49 %
02.05.2017 22:50 10,5 C 13,9 C 73 % 1016,0 hPa 0,0 l/m 6,4 km/h (2 Bft) O-NO 67 0 min 0,000 mm 0,0 UV-I 0 W/m 5,9 C 10,5 C 12,9 km/h (3 Bft) 95,61 %
02.05.2017 22:55 10,4 C 13,9 C 73 % 1015,9 hPa 0,0 l/m 6,4 km/h (2 Bft) O-NO 67 0 min 0,000 mm 0,0 UV-I 0 W/m 5,8 C 10,4 C 9,7 km/h (2 Bft) 92,11 %
02.05.2017 23:00 10,4 C 13,9 C 73 % 1016,0 hPa 0,0 l/m 6,4 km/h (2 Bft) O-NO 67 0 min 0,025 mm 0,0 UV-I 0 W/m 5,8 C 10,4 C 11,3 km/h (2 Bft) 93,86 %
02.05.2017 23:05 10,3 C 13,9 C 73 % 1016,0 hPa 0,0 l/m 6,4 km/h (2 Bft) O-NO 67 0 min 0,000 mm 0,0 UV-I 0 W/m 5,7 C 10,3 C 9,7 km/h (2 Bft) 89,47 %
02.05.2017 23:10 10,2 C 13,9 C 74 % 1016,0 hPa 0,0 l/m 6,4 km/h (2 Bft) O-NO 67 0 min 0,000 mm 0,0 UV-I 0 W/m 5,8 C 10,2 C 9,7 km/h (2 Bft) 95,61 %
02.05.2017 23:15 10,3 C 13,9 C 73 % 1015,9 hPa 0,0 l/m 6,4 km/h (2 Bft) NO 45 0 min 0,000 mm 0,0 UV-I 0 W/m 5,7 C 10,3 C 9,7 km/h (2 Bft) 96,49 %
02.05.2017 23:20 9,9 C 13,9 C 75 % 1016,1 hPa 0,0 l/m 6,4 km/h (2 Bft) NO 45 0 min 0,000 mm 0,0 UV-I 0 W/m 5,7 C 9,9 C 12,9 km/h (3 Bft) 100,00 %
02.05.2017 23:25 9,8 C 13,9 C 76 % 1016,0 hPa 0,0 l/m 6,4 km/h (2 Bft) NO 45 0 min 0,000 mm 0,0 UV-I 0 W/m 5,8 C 9,8 C 11,3 km/h (2 Bft) 100,00 %
02.05.2017 23:30 9,9 C 13,9 C 75 % 1016,0 hPa 0,0 l/m 8,0 km/h (2 Bft) O-NO 67 0 min 0,000 mm 0,0 UV-I 0 W/m 5,7 C 8,7 C 12,9 km/h (3 Bft) 100,00 %
02.05.2017 23:35 9,9 C 13,9 C 75 % 1016,1 hPa 0,0 l/m 8,0 km/h (2 Bft) O-NO 67 0 min 0,000 mm 0,0 UV-I 0 W/m 5,7 C 8,7 C 12,9 km/h (3 Bft) 99,12 %
02.05.2017 23:40 9,8 C 13,9 C 76 % 1016,0 hPa 0,0 l/m 6,4 km/h (2 Bft) NO 45 0 min 0,000 mm 0,0 UV-I 0 W/m 5,8 C 9,8 C 9,7 km/h (2 Bft) 98,25 %
02.05.2017 23:45 9,7 C 13,9 C 76 % 1016,0 hPa 0,0 l/m 4,8 km/h (1 Bft) O-NO 67 0 min 0,000 mm 0,0 UV-I 0 W/m 5,7 C 9,7 C 8,0 km/h (2 Bft) 99,12 %
02.05.2017 23:50 9,3 C 13,9 C 78 % 1015,9 hPa 0,0 l/m 4,8 km/h (1 Bft) O-NO 67 0 min 0,000 mm 0,0 UV-I 0 W/m 5,7 C 9,3 C 8,0 km/h (2 Bft) 97,37 %
02.05.2017 23:55 9,2 C 13,9 C 78 % 1015,9 hPa 0,0 l/m 4,8 km/h (1 Bft) O-NO 67 0 min 0,000 mm 0,0 UV-I 0 W/m 5,6 C 9,2 C 8,0 km/h (2 Bft) 96,49 %
_ Min-Zeit 02:55 05:10 13:35 03:55 - 04:50 - - - - - - 00:05 00:15 05:40 04:05
Minimum _ 4,0 C 11,7 C 49 % 1014,1 hPa - 0,0 km/h (0 Bft) - - - - - - 2,9 C -4,7 C 0,0 km/h (0 Bft) 81,58 %
_ Max-Zeit 16:20 17:50 06:15 11:15 00:05 00:15 - - 07:10 13:00 12:40 13:10 13:50 16:25 00:15 00:15
Maximum _ 16,1 C 14,4 C 96 % 1016,2 hPa 0,2 l/m 20,9 km/h
W-SW (4 Bft)
- - 5 min 0,483 mm 4,3 UV-I 1072 W/m 8,3 C 16,1 C 32,2 km/h
W-SW (5 Bft)
100,00 %
Durchschnitt _ 9,8 C 12,9 C 75 % 1015,3 hPa #2,8 l/m 6,8 km/h (2 Bft) NO - #9:25 h #3,632 mm 2,3 UV-I 415 W/m 5,3 C 8,7 C 12,6 km/h (3 Bft) 96,28 %